Date String (YYYY-MM-DD hh:mm:ss) UTC,Instrument flags,Ambient pressure (hPa),Sample flow (lpm),Bypass flow (lpm),Sample temperature (°C),Ambient temperature (°C),ASC tube jacket temperature (°C),LED temperature (°C),Box temperature (°C),Sample RH (%),Span deviation,Mass concentration (μg/m³),Mass concentration (μg/m³),Mass concentration (μg/m³)
DateTimeUTC,F1_M11,P_M11,Q1_M11,Q2_M11,T1_M11,T2_M11,T3_M11,T4_M11,T5_M11,U1_M11,ZSPAN_M11,X0_M11,X2_M11,X1_M11
2022-08-19 18:00:00,,0828.9,5.00,0.00,30.2,29.0,00.0,38.9,32.1,26.2,0000.0,0017.55,0007.61,0006.50
2022-08-19 18:01:00,,0829.0,5.00,0.00,30.2,29.1,00.0,39.0,32.1,25.4,0000.0,0017.28,0007.67,0006.50
2022-08-19 18:02:00,,0829.0,5.00,0.00,30.2,29.2,00.0,39.0,32.2,25.0,0000.0,0017.01,0007.72,0006.51
2022-08-19 18:03:00,,0829.0,5.00,0.00,30.3,29.3,00.0,39.0,32.2,24.8,0000.0,0015.69,0007.66,0006.51
2022-08-19 18:04:00,,0829.0,5.00,0.00,30.3,29.4,00.0,39.0,32.3,25.1,0000.0,0015.55,0007.63,0006.50
2022-08-19 18:05:00,,0829.0,4.99,0.00,30.4,29.4,00.0,39.0,32.3,26.0,0000.0,0014.96,0007.60,0006.50
2022-08-19 18:06:00,,0828.9,5.01,0.00,30.3,28.9,00.0,39.0,32.1,26.4,0000.0,0014.37,0007.56,0006.49
2022-08-19 18:07:00,,0828.9,4.99,0.00,30.3,28.2,00.0,39.0,32.0,26.4,0000.0,0013.62,0007.54,0006.48
2022-08-19 18:08:00,,0828.9,5.00,0.00,30.2,28.0,00.0,39.0,31.9,26.1,0000.0,0013.28,0007.49,0006.47
2022-08-19 18:09:00,,0828.9,5.00,0.00,30.1,28.0,00.0,38.9,31.8,26.2,0000.0,0013.36,0007.49,0006.47
2022-08-19 18:10:00,,0828.9,5.00,0.00,30.1,28.1,00.0,38.9,31.9,26.5,0000.0,0014.13,0007.52,0006.48
2022-08-19 18:11:00,,0828.8,4.99,0.00,30.1,28.3,00.0,38.9,31.9,26.3,0000.0,0015.55,0007.59,0006.49
2022-08-19 18:12:00,,0828.9,5.01,0.00,30.1,28.4,00.0,38.9,31.9,26.8,0000.0,0016.05,0007.58,0006.50
2022-08-19 18:13:00,,0828.8,5.00,0.00,30.1,28.6,00.0,38.9,32.0,25.6,0000.0,0016.80,0007.58,0006.49
2022-08-19 18:14:00,,0829.1,4.99,0.00,30.1,28.7,00.0,38.9,32.0,25.5,0000.0,0017.33,0007.60,0006.48
2022-08-19 18:15:00,,0829.0,4.99,0.00,30.2,28.9,00.0,38.9,32.1,25.7,0000.0,0017.07,0007.65,0006.48
2022-08-19 18:16:00,,0829.3,5.01,0.00,30.2,29.0,00.0,38.9,32.1,25.6,0000.0,0017.98,0007.66,0006.47
2022-08-19 18:17:00,,0829.2,5.00,0.00,30.2,29.1,00.0,39.0,32.1,25.7,0000.0,0018.19,0007.68,0006.47
2022-08-19 18:18:00,,0829.2,5.00,0.00,30.3,29.2,00.0,39.0,32.2,25.6,0000.0,0018.79,0007.74,0006.48
2022-08-19 18:19:00,,0829.3,4.99,0.00,30.3,29.3,00.0,39.0,32.2,25.6,0000.0,0020.20,0007.78,0006.48
2022-08-19 18:20:00,,0829.2,5.01,0.00,30.3,29.4,00.0,39.0,32.3,25.5,0000.0,0021.93,0007.86,0006.49
2022-08-19 18:21:00,,0829.2,5.01,0.00,30.4,29.4,00.0,39.0,32.3,26.8,0000.0,0022.78,0007.91,0006.50
2022-08-19 18:22:00,,0829.2,5.00,0.00,30.4,28.9,00.0,39.0,32.2,26.5,0000.0,0022.91,0007.90,0006.51
2022-08-19 18:23:00,,0829.3,5.00,0.00,30.3,28.3,00.0,39.0,32.0,25.6,0000.0,0022.63,0007.90,0006.53
2022-08-19 18:24:00,,0829.3,5.00,0.00,30.2,28.0,00.0,39.0,31.9,25.9,0000.0,0021.79,0007.90,0006.53
2022-08-19 18:25:00,,0828.9,4.99,0.00,30.2,28.1,00.0,39.0,31.9,25.7,0000.0,0021.18,0007.90,0006.54
2022-08-19 18:26:00,,0828.7,5.00,0.00,30.1,28.2,00.0,38.9,31.9,25.5,0000.0,0022.20,0007.88,0006.54
2022-08-19 18:27:00,,0828.7,4.99,0.00,30.1,28.3,00.0,38.9,31.9,26.0,0000.0,0022.36,0007.92,0006.56
2022-08-19 18:28:00,,0829.0,5.01,0.00,30.1,28.5,00.0,38.9,32.0,25.6,0000.0,0022.92,0007.94,0006.57
2022-08-19 18:29:00,,0828.7,4.99,0.00,30.1,28.7,00.0,38.9,32.0,25.3,0000.0,0023.30,0007.91,0006.56
2022-08-19 18:30:00,,0828.9,5.01,0.00,30.2,28.8,00.0,38.9,32.1,25.6,0000.0,0023.17,0007.93,0006.54
2022-08-19 18:31:00,,0828.8,5.00,0.00,30.2,28.9,00.0,39.0,32.1,25.7,0000.0,0021.65,0007.91,0006.54
2022-08-19 18:32:00,,0828.7,5.00,0.00,30.2,29.1,00.0,39.0,32.2,25.9,0000.0,0021.29,0007.84,0006.53
2022-08-19 18:33:00,,0828.7,5.00,0.00,30.3,29.2,00.0,39.0,32.2,25.6,0000.0,0020.20,0007.84,0006.52
2022-08-19 18:34:00,,0828.8,5.00,0.00,30.3,29.3,00.0,39.0,32.3,25.5,0000.0,0020.40,0007.89,0006.51
2022-08-19 18:35:00,,0828.8,5.01,0.00,30.4,29.3,00.0,39.0,32.3,25.6,0000.0,0020.75,0007.89,0006.50
2022-08-19 18:36:00,,0828.7,5.00,0.00,30.3,28.7,00.0,39.0,32.1,25.5,0000.0,0022.06,0007.89,0006.49
2022-08-19 18:37:00,,0828.7,5.00,0.00,30.2,28.1,00.0,39.0,32.0,26.2,0000.0,0021.24,0007.89,0006.49
2022-08-19 18:38:00,,0828.8,4.99,0.00,30.2,27.9,00.0,38.9,31.9,25.9,0000.0,0020.42,0007.85,0006.48
2022-08-19 18:39:00,,0828.7,5.00,0.00,30.1,28.0,00.0,38.9,31.8,26.0,0000.0,0020.81,0007.82,0006.45
2022-08-19 18:40:00,,0828.7,4.99,0.00,30.1,28.1,00.0,38.9,31.8,25.7,0000.0,0020.55,0007.76,0006.43
2022-08-19 18:41:00,,0828.7,5.00,0.00,30.1,28.2,00.0,38.9,31.9,25.8,0000.0,0020.37,0007.73,0006.43
2022-08-19 18:42:00,,0829.0,5.01,0.00,30.1,28.4,00.0,38.9,32.0,25.8,0000.0,0020.70,0007.74,0006.42
2022-08-19 18:43:00,,0829.0,4.99,0.00,30.1,28.6,00.0,38.9,32.0,25.5,0000.0,0019.99,0007.76,0006.40
2022-08-19 18:44:00,,0829.1,5.01,0.00,30.1,28.8,00.0,38.9,32.0,26.3,0000.0,0019.74,0007.76,0006.38
2022-08-19 18:45:00,,0829.3,4.99,0.00,30.2,28.9,00.0,38.9,32.1,25.7,0000.0,0020.63,0007.75,0006.36
2022-08-19 18:46:00,,0829.2,5.00,0.00,30.2,29.0,00.0,38.9,32.1,26.4,0000.0,0021.03,0007.77,0006.34
2022-08-19 18:47:00,,0829.3,5.01,0.00,30.2,29.1,00.0,38.9,32.1,25.6,0000.0,0020.69,0007.77,0006.32
2022-08-19 18:48:00,,0828.9,5.00,0.00,30.3,29.3,00.0,39.0,32.2,26.1,0000.0,0021.60,0007.74,0006.30
2022-08-19 18:49:00,,0828.9,5.00,0.00,30.3,29.2,00.0,39.0,32.2,26.2,0000.0,0021.48,0007.74,0006.29
2022-08-19 18:50:00,,0829.2,4.99,0.00,30.3,28.6,00.0,38.9,32.0,26.1,0000.0,0021.47,0007.74,0006.28
2022-08-19 18:51:00,,0828.8,5.01,0.00,30.2,28.1,00.0,38.9,31.9,26.1,0000.0,0021.04,0007.78,0006.27
2022-08-19 18:52:00,,0828.8,4.99,0.00,30.1,27.9,00.0,38.9,31.8,25.6,0000.0,0020.36,0007.79,0006.27
2022-08-19 18:53:00,,0828.8,5.01,0.00,30.1,28.0,00.0,38.9,31.8,26.2,0000.0,0019.87,0007.76,0006.27
2022-08-19 18:54:00,,0828.9,5.00,0.00,30.0,28.1,00.0,38.9,31.8,27.0,0000.0,0019.80,0007.74,0006.26
2022-08-19 18:55:00,,0828.8,5.00,0.00,30.0,28.3,00.0,38.9,31.9,26.9,0000.0,0020.12,0007.72,0006.25
2022-08-19 18:56:00,,0829.2,5.00,0.00,30.1,28.5,00.0,38.9,31.9,26.8,0000.0,0018.67,0007.69,0006.24
2022-08-19 18:57:00,,0829.2,4.99,0.00,30.1,28.6,00.0,38.9,32.0,26.8,0000.0,0018.14,0007.64,0006.22
2022-08-19 18:58:00,,0828.8,5.00,0.00,30.1,28.8,00.0,38.9,32.0,25.2,0000.0,0017.31,0007.61,0006.19
2022-08-19 18:59:00,,0828.7,5.00,0.00,30.1,28.9,00.0,38.9,32.1,25.4,0000.0,0016.77,0007.56,0006.17
